Вернуться в каталог

STARLINK-32080

АктивенСвязьVLEO
NORAD 59683·PAYLOAD·🇺🇸 United States

Запущен May 8, 2024 с Cape Canaveral Space Force Station

Loading…

Ближайшие Пролёты (ближайшие 24 часа)

TLE

СвежийSource: CelesTrak SupGP

Эпоха: Sep 15, 2026, 01:51 UTC

1 59683C 24086B   26258.07756944  .00001812  00000+0  65621-4 0  2589
2 59683  43.0023  74.2334 0001660 270.9933 357.4235 15.27584404    14

Отслеживайте STARLINK-32080 в реальном времени с AllMySat

Download on the App Store